TimeCST,TemperatureF,Dew PointF,Humidity,Sea Level PressureIn,VisibilityMPH,Wind Direction,Wind SpeedMPH,Gust SpeedMPH,PrecipitationIn,Events,Conditions,WindDirDegrees,DateUTC
12:15 AM,51.8,40.1,64,29.93,10.0,South,15.0,20.7,N/A,,Clear,170,2012-11-22 06:15:00
12:35 AM,51.1,40.1,66,29.92,10.0,SSE,13.8,20.7,N/A,,Clear,160,2012-11-22 06:35:00
12:55 AM,49.8,40.1,69,29.92,10.0,SSE,13.8,-,N/A,,Clear,160,2012-11-22 06:55:00
1:15 AM,48.7,39.9,72,29.91,10.0,SSE,12.7,-,N/A,,Clear,160,2012-11-22 07:15:00
1:35 AM,48.6,39.7,72,29.90,10.0,SSE,12.7,-,N/A,,Clear,160,2012-11-22 07:35:00
1:55 AM,49.6,39.2,67,29.90,10.0,South,12.7,-,N/A,,Clear,170,2012-11-22 07:55:00
2:15 AM,51.3,39.0,63,29.89,10.0,South,12.7,-,N/A,,Clear,170,2012-11-22 08:15:00
2:35 AM,51.3,38.7,62,29.88,10.0,South,16.1,21.9,N/A,,Clear,170,2012-11-22 08:35:00
2:55 AM,51.3,38.5,62,29.87,10.0,South,15.0,-,N/A,,Clear,170,2012-11-22 08:55:00
3:15 AM,52.0,38.3,60,29.86,10.0,South,17.3,-,N/A,,Clear,170,2012-11-22 09:15:00
3:35 AM,51.3,38.3,61,29.85,10.0,South,17.3,-,N/A,,Clear,170,2012-11-22 09:35:00
3:55 AM,49.6,38.1,65,29.85,10.0,SSE,15.0,-,N/A,,Clear,160,2012-11-22 09:55:00
4:15 AM,48.4,38.1,68,29.84,10.0,South,13.8,-,N/A,,Clear,170,2012-11-22 10:15:00
4:55 AM,49.1,37.8,65,29.83,10.0,SSE,12.7,-,N/A,,Clear,160,2012-11-22 10:55:00
5:15 AM,48.0,37.8,68,29.83,10.0,South,12.7,-,N/A,,Clear,170,2012-11-22 11:15:00
5:35 AM,48.2,37.8,67,29.82,10.0,SSE,9.2,-,N/A,,Scattered Clouds,160,2012-11-22 11:35:00
5:55 AM,47.5,37.8,69,29.82,10.0,SSE,10.4,-,N/A,,Scattered Clouds,150,2012-11-22 11:55:00
6:15 AM,46.8,37.8,71,29.81,10.0,SSE,9.2,-,N/A,,Clear,160,2012-11-22 12:15:00
6:35 AM,47.3,37.9,70,29.81,10.0,SSE,9.2,-,N/A,,Clear,150,2012-11-22 12:35:00
7:15 AM,48.7,38.7,68,29.80,10.0,SSE,9.2,-,N/A,,Clear,160,2012-11-22 13:15:00
7:35 AM,51.3,39.2,63,29.81,10.0,South,12.7,-,N/A,,Clear,180,2012-11-22 13:35:00
7:55 AM,51.8,39.6,63,29.81,10.0,South,11.5,-,N/A,,Clear,180,2012-11-22 13:55:00
8:15 AM,51.8,40.1,64,29.81,10.0,South,11.5,-,N/A,,Clear,180,2012-11-22 14:15:00
8:35 AM,52.9,40.6,63,29.81,10.0,South,10.4,-,N/A,,Clear,180,2012-11-22 14:35:00
8:55 AM,55.0,41.7,61,29.80,10.0,South,13.8,-,N/A,,Clear,190,2012-11-22 14:55:00
9:15 AM,58.5,42.8,56,29.79,10.0,South,13.8,23.0,N/A,,Clear,190,2012-11-22 15:15:00
9:55 AM,61.2,43.7,53,29.78,10.0,SSW,18.4,27.6,N/A,,Clear,210,2012-11-22 15:55:00
10:15 AM,60.8,43.7,53,29.79,10.0,SSW,18.4,24.2,N/A,,Clear,210,2012-11-22 16:15:00
10:35 AM,60.8,44.1,54,29.78,10.0,SSW,16.1,24.2,N/A,,Clear,210,2012-11-22 16:35:00
10:55 AM,62.8,44.6,51,29.77,10.0,SSW,18.4,26.5,N/A,,Clear,210,2012-11-22 16:55:00
11:15 AM,62.8,45.0,52,29.76,10.0,SSW,20.7,28.8,N/A,,Clear,210,2012-11-22 17:15:00
11:35 AM,63.5,45.1,51,29.76,10.0,SSW,19.6,25.3,N/A,,Clear,210,2012-11-22 17:35:00
11:55 AM,63.0,45.5,53,29.75,10.0,SW,23.0,28.8,N/A,,Clear,220,2012-11-22 17:55:00
12:15 PM,64.0,46.0,52,29.73,10.0,SSW,19.6,28.8,N/A,,Clear,210,2012-11-22 18:15:00
12:35 PM,65.1,46.8,51,29.73,10.0,SW,19.6,28.8,N/A,,Clear,220,2012-11-22 18:35:00
12:55 PM,64.8,47.3,53,29.73,10.0,SW,20.7,31.1,N/A,,Clear,230,2012-11-22 18:55:00
1:15 PM,64.6,47.3,53,29.72,10.0,SW,21.9,28.8,N/A,,Clear,220,2012-11-22 19:15:00
1:35 PM,64.4,47.5,54,29.73,10.0,SW,20.7,24.2,N/A,,Clear,220,2012-11-22 19:35:00
1:55 PM,64.6,48.0,55,29.74,10.0,SW,17.3,-,N/A,,Clear,220,2012-11-22 19:55:00
2:15 PM,65.3,48.4,54,29.74,10.0,SW,12.7,-,N/A,,Clear,230,2012-11-22 20:15:00
2:35 PM,66.6,47.3,50,29.74,10.0,WSW,19.6,26.5,N/A,,Clear,250,2012-11-22 20:35:00
2:55 PM,65.3,43.7,46,29.76,10.0,WSW,19.6,25.3,N/A,,Clear,250,2012-11-22 20:55:00
3:15 PM,66.4,38.7,36,29.76,10.0,West,25.3,29.9,N/A,,Clear,270,2012-11-22 21:15:00
3:35 PM,63.7,36.0,36,29.79,10.0,West,24.2,34.5,N/A,,Clear,280,2012-11-22 21:35:00
3:55 PM,61.7,35.6,38,29.81,10.0,West,23.0,26.5,N/A,,Clear,280,2012-11-22 21:55:00
4:15 PM,60.4,37.6,43,29.83,10.0,WNW,24.2,28.8,N/A,,Clear,300,2012-11-22 22:15:00
4:35 PM,57.7,38.3,48,29.85,10.0,NW,20.7,32.2,N/A,,Clear,310,2012-11-22 22:35:00
4:55 PM,55.9,38.7,52,29.88,10.0,NW,17.3,24.2,N/A,,Clear,310,2012-11-22 22:55:00
5:15 PM,52.7,37.8,57,29.90,10.0,NW,26.5,36.8,N/A,,Clear,310,2012-11-22 23:15:00
5:35 PM,50.5,37.4,61,29.93,10.0,WNW,24.2,33.4,N/A,,Clear,300,2012-11-22 23:35:00
5:55 PM,48.4,36.1,63,29.95,10.0,WNW,25.3,34.5,N/A,,Clear,300,2012-11-22 23:55:00
6:15 PM,47.5,35.8,64,29.97,10.0,WNW,19.6,29.9,N/A,,Clear,300,2012-11-23 00:15:00
6:35 PM,46.4,35.8,67,29.98,10.0,WNW,13.8,23.0,N/A,,Clear,300,2012-11-23 00:35:00
6:55 PM,46.4,35.6,66,30.00,10.0,WNW,21.9,28.8,N/A,,Scattered Clouds,300,2012-11-23 00:55:00
7:55 PM,43.2,33.1,68,30.04,10.0,WNW,19.6,29.9,N/A,,Mostly Cloudy,300,2012-11-23 01:55:00
8:15 PM,42.8,33.1,69,30.05,10.0,WNW,17.3,25.3,N/A,,Mostly Cloudy,300,2012-11-23 02:15:00
8:35 PM,42.1,32.9,70,30.06,10.0,WNW,17.3,-,N/A,,Scattered Clouds,290,2012-11-23 02:35:00
8:55 PM,41.4,32.9,72,30.06,10.0,WNW,13.8,-,N/A,,Clear,290,2012-11-23 02:55:00
9:15 PM,41.0,32.9,73,30.06,10.0,West,12.7,-,N/A,,Clear,280,2012-11-23 03:15:00
9:35 PM,41.0,32.5,72,30.07,10.0,WNW,16.1,20.7,N/A,,Clear,290,2012-11-23 03:35:00
9:55 PM,41.2,32.4,71,30.08,10.0,WNW,17.3,-,N/A,,Scattered Clouds,290,2012-11-23 03:55:00
10:15 PM,41.9,32.0,68,30.08,10.0,WNW,18.4,25.3,N/A,,Mostly Cloudy,290,2012-11-23 04:15:00
10:35 PM,41.7,31.6,67,30.08,10.0,WNW,17.3,25.3,N/A,,Mostly Cloudy,290,2012-11-23 04:35:00
10:55 PM,40.8,31.3,69,30.08,10.0,WNW,21.9,25.3,N/A,,Scattered Clouds,290,2012-11-23 04:55:00
11:15 PM,40.3,29.3,65,30.08,10.0,WNW,20.7,26.5,N/A,,Clear,290,2012-11-23 05:15:00
11:35 PM,39.0,28.4,66,30.09,10.0,West,15.0,-,N/A,,Clear,280,2012-11-23 05:35:00
11:55 PM,38.3,28.2,67,30.09,10.0,West,16.1,20.7,N/A,,Clear,280,2012-11-23 05:55:00